EW8784 Weather Reports


time (UTC)temp
C
wind
direction
speed
KPH
gust
KPH
rain 1hr
cm
rain 24hr
cm
rain mn
cm
humidity
%
barometer
mb
20260831061503 28 75 4.8 14.5 0.00 0.13 0.08 96 1015.4
20260831060007 28 350 8.0 14.5 0.00 0.13 0.08 96 1015.4
20260831054508 28 86 6.4 16.1 0.00 0.13 0.08 95 1015.5
20260831053005 28 4 4.8 14.5 0.00 0.13 0.08 94 1015.5
20260831051506 29 90 8.0 12.9 0.00 0.08 0.03 92 1015.6
20260831050004 28 174 8.0 16.1 0.00 0.08 0.03 93 1015.6
20260831044508 28 35 8.0 14.5 0.00 0.08 0.03 96 1015.7
20260831043005 28 172 11.3 20.9 0.00 0.05 0.00 97 1015.7
20260831041509 28 76 9.7 19.3 0.00 0.05 0.00 100 1015.7
20260831040021 27 79 8.0 16.1 0.00 0.05 0.00 100 1015.9
20260831034507 27 77 11.3 16.1 0.00 0.05 0.00 100 1015.9
20260831031504 26 52 6.4 16.1 0.00 0.05 0.00 100 1016.0
20260831030008 26 90 9.7 17.7 0.00 0.05 0.00 100 1016.1
20260831024505 25 63 8.0 14.5 0.00 0.05 0.00 100 1016.1
20260831023006 25 52 3.2 4.8 0.00 0.05 0.00 100 1016.2
20260831021503 25 37 6.4 12.9 0.00 0.05 0.00 100 1016.1
20260831020004 25 359 8.0 14.5 0.00 0.05 0.00 100 1016.1
20260831014506 25 44 8.0 12.9 0.00 0.05 0.00 100 1016.0
20260831013008 25 97 6.4 14.5 0.00 0.05 0.00 100 1016.0
20260831011504 25 127 8.0 12.9 0.00 0.05 0.00 100 1016.1
20260831010005 25 34 9.7 16.1 0.00 0.05 0.00 100 1015.9
20260831004501 25 72 11.3 14.5 0.00 0.05 0.00 100 1015.7
20260831001504 25 115 8.0 12.9 0.00 0.05 0.00 100 1015.5
20260830234502 25 165 8.0 14.5 0.00 0.05 0.00 100 1015.5
20260830233004 25 70 8.0 12.9 0.00 0.05 0.00 100 1015.4
20260830231502 25 82 9.7 14.5 0.00 0.05 0.00 100 1015.3
20260830230003 25 69 8.0 9.7 0.00 0.05 0.00 100 1015.1
20260830224504 25 91 4.8 8.0 0.00 0.05 0.00 100 1015.0
20260830223006 25 38 0.0 1.6 0.00 0.05 0.00 100 1014.9
20260830221502 25 48 0.0 0.0 0.00 0.48 0.00 100 1015.0
20260830220002 24 87 1.6 3.2 0.00 0.48 0.00 100 1014.9
20260830214505 25 49 0.0 0.0 0.00 0.74 0.00 100 1014.9
20260830213002 25 24 0.0 0.0 0.00 0.74 0.00 100 1014.8
20260830211503 25 24 0.0 0.0 0.00 0.74 0.00 100 1014.4
20260830210004 25 24 0.0 0.0 0.00 0.74 0.00 100 1014.3
20260830204506 25 24 0.0 0.0 0.00 0.74 0.00 100 1014.2
20260830203003 25 24 0.0 0.0 0.00 0.74 0.00 100 1014.1
20260830200002 24 24 0.0 0.0 0.00 0.74 0.00 100 1013.9
20260830194505 25 24 0.0 0.0 0.00 0.74 0.00 100 1013.8
20260830193003 24 58 0.0 0.0 0.00 0.74 0.00 100 1013.6
20260830191504 24 56 0.0 0.0 0.00 0.74 0.00 100 1013.4
20260830190004 24 60 0.0 0.0 0.00 0.74 0.00 100 1013.3
20260830184506 24 38 4.8 8.0 0.00 0.74 0.00 100 1013.1
20260830183003 24 21 1.6 4.8 0.00 0.74 0.00 100 1013.1
20260830181507 24 94 0.0 0.0 0.00 0.74 0.00 100 1013.1
20260830174506 24 68 4.8 9.7 0.00 0.74 0.00 100 1012.9
20260830173007 24 103 4.8 9.7 0.00 0.74 0.00 100 1012.7
20260830171508 24 68 3.2 6.4 0.00 0.74 0.00 100 1012.6
20260830163006 24 86 4.8 9.7 0.00 0.74 0.00 100 1012.2
20260830161507 24 66 0.0 0.0 0.00 0.74 0.00 100 1012.2
20260830160007 24 84 0.0 0.0 0.00 0.74 0.00 100 1012.2
20260830154504 25 117 4.8 11.3 0.00 0.74 0.00 100 1012.3
20260830151507 25 49 4.8 8.0 0.00 0.74 0.00 100 1012.5
20260830150007 24 117 1.6 4.8 0.00 0.74 0.00 100 1012.5
20260830144504 24 105 8.0 16.1 0.00 0.74 0.74 100 1012.4
20260830143006 25 70 1.6 9.7 0.00 0.74 0.74 100 1012.6
20260830141502 25 129 3.2 6.4 0.00 0.74 0.74 100 1012.6
20260830140004 25 62 3.2 4.8 0.00 0.74 0.74 100 1012.6
20260830134504 25 359 4.8 12.9 0.00 0.74 0.74 100 1012.7
20260830133004 25 359 0.0 0.0 0.00 0.74 0.74 100 1012.7
20260830131507 25 323 0.0 0.0 0.00 0.74 0.74 100 1012.8
20260830130006 25 323 0.0 0.0 0.00 0.74 0.74 100 1012.8
20260830124503 26 323 0.0 0.0 0.00 0.74 0.74 100 1012.7
20260830123004 26 323 0.0 0.0 0.00 0.74 0.74 100 1012.9
20260830121506 26 323 0.0 0.0 0.00 0.76 0.74 100 1012.7
20260830120006 26 323 0.0 0.0 0.00 0.76 0.74 100 1012.6
20260830113005 26 323 0.0 0.0 0.00 0.76 0.74 100 1012.4
20260830111505 26 323 0.0 0.0 0.00 0.76 0.74 100 1012.1
20260830104506 26 323 0.0 0.0 0.00 0.76 0.74 100 1011.9
20260830103005 26 323 0.0 0.0 0.00 0.76 0.74 100 1011.6
20260830100005 26 323 0.0 0.0 0.00 0.76 0.74 100 1011.2
20260830094505 26 323 0.0 0.0 0.00 0.76 0.74 100 1011.0
20260830093006 26 323 0.0 0.0 0.00 0.76 0.74 100 1011.1
20260830091508 26 323 0.0 0.0 0.00 0.76 0.74 100 1010.9
20260830090011 26 323 0.0 0.0 0.00 0.76 0.74 100 1010.8
20260830084505 26 323 0.0 0.0 0.00 0.76 0.74 100 1010.6
20260830081502 27 330 0.0 0.0 0.00 0.76 0.74 100 1010.2
20260830080005 26 330 0.0 0.0 0.00 0.76 0.74 100 1010.2
20260830074508 27 330 4.8 4.8 0.00 0.76 0.74 100 1010.2
20260830073011 27 328 1.6 1.6 0.00 0.76 0.74 100 1010.2
20260830071505 27 343 0.0 3.2 0.00 0.76 0.74 100 1010.1
20260830070007 27 342 0.0 0.0 0.00 0.76 0.74 100 1009.9
20260830064504 27 167 1.6 6.4 0.00 0.76 0.74 100 1010.1